Regional Weather Roundup
Issued by NWS New Orleans/Baton Rouge, LA

Home | Current Version | Previous Version | Text Only | Print | Product List | Glossary On
Versions: 1 2 3 4 5 6 7 8 9 10 11 12 13 14 15 16 17 18 19 20 21 22 23 24 25 26 27 28 29 30 31 32 33 34 35 36 37 38 39 40 41 42 43 44 45 46 47 48 49 50
000
ASUS44 KLIX 241413
RWRLIX
NEW ORLEANS REGIONAL WEATHER ROUNDUP
NATIONAL WEATHER SERVICE NEW ORLEANS LA
900 AM CDT WED MAY 24 2017

NOTE: "FAIR" INDICATES FEW OR NO CLOUDS BELOW 12,000 FEET WITH NO
      SIGNIFICANT WEATHER AND/OR OBSTRUCTIONS TO VISIBILITY.
      SKY/WX - SKY CONDITION AND SIGNIFICANT WEATHER.
      TMP - AIR TEMPERATURE.     DP    - DEWPOINT TEMPERATURE.
      RH  - RELATIVE HUMIDITY.   PRES  - PRESSURE.
      HI  - HEAT INDEX.          WCI   - WIND CHILL INDEX.

*  THESE STATIONS ARE NOT NWS OR FAA STATIONS AND ARE NOT UNDER
   NWS QUALITY CONTROL.

LAZ038-040-048-061>063-065>067-069-241500-
SOUTHEAST LOUISIANA

CITY           SKY/WX    TMP DP  RH WIND       PRES   REMARKS
N.O. INTL ARPT PTSUNNY   68  57  68 NW16      29.70R
N.O. LAKEFRONT CLOUDY    70  59  68 NW23      29.69R
N.O. DOWNTOWN*   N/A     71  57  61 NW8G18      N/A
RESERVE*         N/A     70  53  54 NW12G18   29.70S
SLIDELL        PTSUNNY   69  56  62 NW8G22    29.67R
BATON ROUGE    MOSUNNY   66  55  67 NW10G20   29.71F
BOOTHVILLE     MOSUNNY   72  64  76 NW13G23   29.69R
BELLE CHASSE   CLOUDY    69  60  73 NW12G20   29.68R
BOGALUSA*        N/A     67  56  66 NW14      29.70R
GALLIANO*      CLOUDY    69  61  74 NW15G21   29.69S
NEW ROADS*       N/A     65  56  73 NW15      29.73S
GONZALES*        N/A     67  54  63 NW10G17   29.70S
HAMMOND*       SUNNY     68  52  56 NW10G18   29.69S
HOUMA*         MOSUNNY   68  61  77 NW12      29.71R
PORT FOURCHON* CLOUDY    72  63  73 NW21      29.69R

$$

MSZ070-080>082-241500-
SOUTHERN MISSISSIPPI

CITY           SKY/WX    TMP DP  RH WIND       PRES   REMARKS
MCCOMB         MOSUNNY   62  53  72 NW12      29.68F
GULFPORT       PTSUNNY   71  60  68 NW16      29.64R
BILOXI         PTSUNNY   71  60  68 NW13      29.63R
PASCAGOULA     PTSUNNY   72  62  71 VRB7      29.64R
STENNIS ARPT*  MOSUNNY   68  59  73 NW14      29.66S

$$

COASTAL OBSERVATIONS
LAKE AND NEARSHORE STATIONS

STATION/POSITION TIME  TEMP    WIND        PRES    WAVE
                       AIR SEA DIR/SP/G            HT/PER
                 (UTC) (F)     (DEG/KT/KT) (MB)    (FT/S)
PASCAGOULA       1342   72     330/ 10/ 17 1003.1
WAVELAND YACHT   1342   68 78  320/ 11/ 15 1003.7
GRAND ISLE       1342   70 78  330/ 17/ 21 1004.7
SOUTHWEST PASS   1342          330/ 19/ 20   N/A
NEW CANAL        1342   69 78  310/  3/  9 1005.2
SHELL BEACH      1342   70 79  320/ 20/ 27 1004.5

OFFSHORE STATIONS

STATION/POSITION TIME  TEMP    WIND        PRES    WAVE
                       AIR SEA DIR/SP/G            HT/PER
                 (UTC) (F)     (DEG/KT/KT) (MB)    (FT/S)
64 S DAUPHIN ISL 1350   76 78  270/ 17/ 19 1004.3    4/ 7

$$




USA.gov is the U.S. government's official web portal to all federal, state and local government web resources and services.